Other Public Products
Issued by NWS Grand Forks, ND

Home | Current Version | Previous Version | Graphics & Text | Print | Product List | Glossary On
Versions: 1 2 3 4 5 6 7 8 9 10 11 12 13 14 15 16 17 18 19 20 21 22 23 24 25 26 27 28 29 30 31 32 33 34 35 36 37 38 39 40 41 42 43 44 45 46 47 48 49 50
000
FPUS83 KFGF 282310
OPUFGF
PRAIRIE TO PINES WEATHER ROUNDUP
NATIONAL WEATHER SERVICE EASTERN NORTH DAKOTA/GRAND FORKS ND
500 PM CST WED JAN 28 2015

 **SATELLITE DATA USED TO AUGMENT SKY COVER AT AUTOMATED STATIONS**
 *****  WEATHER ACROSS EASTERN NORTH DAKOTA  *****

CITY           SKY/WX    TMP DP  RH WIND       PRES   REMARKS
GRAND FORKS    LGT RAIN  34  32  92 N20       29.84R FOG     WCI  23
GRAND FORKS AF CLOUDY    33  31  93 N16G23    29.86R WCI  22
GRAND CITY NWS   N/A     32 N/A N/A N9          N/A  WCI  24
BUXTON         NOT AVBL
DEVILS LAKE    CLOUDY    28  25  86 NW22G28   29.91R WCI  15
FARGO          CLOUDY    36  32  85 W13       29.81R FOG
WAHPETON ARPT  CLOUDY    32  32 100 CALM      29.81R
$$

 *****  WEATHER ACROSS CENTRAL AND WESTERN NORTH DAKOTA  *****

CITY           SKY/WX    TMP DP  RH WIND       PRES   REMARKS
JAMESTOWN      CLOUDY    32  30  92 NW23G30   29.86R WCI  19
BISMARCK       CLOUDY    33  28  81 NW23G32   30.00R WCI  21
MINOT          CLOUDY    28  25  88 NW20G29   30.02R WCI  15
MINOT AFB      CLOUDY    29  29 100 NW20      30.03R WCI  16
GARRISON         N/A     30  28  92 NW29G37   30.02R WCI  15
WILLISTON      CLOUDY    34  29  82 NW17G24   30.15R WCI  23
DICKINSON      CLOUDY    32  28  85 NW23G33   30.05R WCI  19
HETTINGER      CLOUDY    32  28  85 NW29G38   30.04R WCI  18
$$

 *****  OTHER OBSERVATIONS NORTHEAST NORTH DAKOTA  *****

CITY           SKY/WX    TMP DP  RH WIND       PRES   REMARKS
WALHALLA         N/A     25  25 100 N20G30    29.93R FOG     WCI  11
LANGDON        CLOUDY    25  23  93 N22       29.89R FOG     WCI  10
CAVALIER       LGT RAIN  28  28 100 NW22G29   29.90R WCI  15
GRAFTON        NOT AVBL
CANDO          CLOUDY    27  27 100 NW17G24   29.95R FOG     WCI  14
FORT TOTTEN      N/A     28  28 100 NW12      29.95S WCI  18
ROLLA          CLOUDY    23  23 100 NW21      29.95R WCI   8
RUGBY          CLOUDY    25  25 100 NW25G32   29.98R WCI   9
 ***** THE ABOVE OBSERVATIONS ARE NON NWS ARE NOT QUALITY
        CONTROLLED AND MAY MIS-REPORT RAIN FOR SNOW...
$$

 *****  OTHER OBSERVATIONS SOUTHEAST NORTH DAKOTA *****

CITY           SKY/WX    TMP DP  RH WIND       PRES   REMARKS
COOPERSTOWN    NOT AVBL
VALLEY CITY    CLOUDY    32  32 100 N23       29.84R WCI  19
OAKES            N/A     32  32 100 NW20G25   29.83R WCI  20
GWINNER        CLOUDY    36  36 100 N18G25    29.83R
BUFFALO        NOT AVBL
WYNDMERE         N/A     36  34  93 NW5         N/A
 ***** THE ABOVE OBSERVATIONS ARE NON NWS ARE NOT QUALITY
       CONTROLLED AND MAY MIS-REPORT RAIN FOR SNOW...
$$

  *****  WEATHER ACROSS NORTHERN MINNESOTA  *****

CITY           SKY/WX    TMP DP  RH WIND       PRES   REMARKS
FLAG ISLAND    CLOUDY    28  28 100 CALM      29.80R FOG
WARROAD        CLOUDY    32  28  86 CALM      29.81R FOG
ROSEAU         FOG       34  28  80 CALM      29.81R VSB 1
HALLOCK        CLOUDY    32  30  93 N17       29.86R FOG     WCI  21
THF RVR FALLS  CLOUDY    32  30  93 NW7       29.81R VSB 3/4
HALSTAD          N/A     33  32  94 NW8         N/A
FOSSTON        CLOUDY    30  30 100 CALM      29.80R FOG
BAUDETTE       CLOUDY    31  30  96 S3        29.78S FOG
WASKISH        FOG       30  30 100 CALM      29.79R VSB 3/4
CROOKSTON      FOG       32  32 100 NW9       29.84R VSB 1/2 WCI  24
$$
  *****  WEATHER ACROSS CENTRAL AND WEST MINNESOTA  *****

CITY           SKY/WX    TMP DP  RH WIND       PRES   REMARKS
BEMIDJI        CLOUDY    31  31  99 CALM      29.77S FOG
PARK RAPIDS    FOG       31  30  96 S5        29.77R VSB 3/4
WADENA         FOG       28  28 100 S6        29.78R VSB 1/2 WCI  22
DETROIT LAKES  CLOUDY    32  32 100 SW3       29.79R FOG
MOORHEAD       CLOUDY    36  36 100 W3        29.82R FOG
FERGUS FALLS   FOG       32  32 100 S3        29.82R VSB 3/4
ELBOW LAKE     FOG       31  31 100 S6        29.78R VSB 3/4
MORRIS MN      FOG       32  30  93 SE5       29.78R VSB 1/2
STAPLES        CLOUDY    28  28 100 S7        29.79R FOG     WCI  21
WHEATON        CLOUDY    32  30  93 SE3       29.81R FOG
$$
  *****  WEATHER ELSEWHERE ACROSS MINNESOTA  *****

CITY           SKY/WX    TMP DP  RH WIND       PRES   REMARKS
DULUTH         CLOUDY    29  22  75 S6        29.80R HAZE    WCI  23
INTRNTL FALLS  CLOUDY    27  25  92 S3        29.80S FOG
ELY            CLOUDY    27  23  86 S6        29.80S WCI  20
CLOQUET        CLOUDY    28  23  80 S3        29.81R
BRAINERD       CLOUDY    29  26  89 SW7       29.80R FOG     WCI  22
HIBBING        CLOUDY    28  22  78 S3        29.80S
ALEXANDRIA     FOG       31  30  96 SE6       29.78R VSB 1/2
SAINT CLOUD    CLOUDY    29  27  92 SE6       29.80R FOG     WCI  23
MINNEAPOLIS    CLOUDY    31  27  85 E7        29.81S FOG     WCI  24
$$

  *****  WEATHER ACROSS SOUTH DAKOTA  *****

CITY           SKY/WX    TMP DP  RH WIND       PRES   REMARKS
SIOUX FALLS    MOCLDY    43  35  73 NW5       29.72R
BROOKINGS      NOT AVBL
WATERTOWN      MOCLDY    37  32  82 NW9       29.75R
HURON          PTCLDY    41  36  82 NW10      29.78R
SISSETON         N/A     36  33  89 NW5       29.78R
ABERDEEN       CLOUDY    38  34  85 N23G30    29.84R
MITCHELL       CLEAR     47  39  74 N17       29.76R
PIERRE         CLOUDY    49  34  56 NW35G43   29.86R
MOBRIDGE       CLOUDY    36  30  79 NW25G37   29.91R
RAPID CITY     CLOUDY    49  30  48 N30G40    29.99R
$$

  *****  SOME WEATHER IN NEARBY STATES *****

CITY           SKY/WX    TMP DP  RH WIND       PRES   REMARKS
GLASGOW MT     PTCLDY    38  30  73 NW16      30.23R
GREAT FALLS MT CLOUDY    42  32  67 NE8       30.29R
CHEYENNE WY    CLOUDY    47  29  49 NW29G41   30.11R
SCOTTSBLUFF NE CLOUDY    48  38  68 NW17      30.10R
OMAHA NE       PTCLDY    57  36  45 W3        29.69R
DES MOINES IA  CLOUDY    51  37  58 SE5       29.70S
DAVENPORT IA   MOCLDY    35  28  75 SE20      29.87F WCI  24
CHICAGO IL     CLOUDY    32  22  66 SE20      30.02F WCI  20
EAU CLAIRE WI  MOCLDY    29  23  78 SE12      29.82F WCI  19
LA CROSSE WI   CLOUDY    36  23  59 SE16      29.82F
$$

  *****  SOME NATIONAL WEATHER *****

CITY           SKY/WX    TMP DP  RH WIND       PRES   REMARKS
LA GUARDIA NY  CLEAR     32  11  41 N9        30.16R WCI  24
RALEIGH NC     PTCLDY    39   9  29 CALM      30.27R
ATLANTA GA     CLEAR     53  20  27 W3        30.23R
NEW ORLEANS LA PTCLDY    65  43  44 SE9       30.23R
OKLAHOMA CITY  MOCLDY    77  41  27 SW18      29.87S
ALBUQUERQUE NM PTSUNNY   62  27  26 NW14      30.16S
SALT LAKE CITY CLOUDY    48  37  65 N12       30.30R
LOS ANGELES CA CLOUDY    63  53  70 W13       30.08R
BOISE ID       SUNNY     46  37  71 NW6       30.33S
SEATTLE WA     MOSUNNY   52  44  74 N6        30.36F
$$

*** WEATHER ACROSS MANITOBA...SASKATCHEWAN AND ONTARIO ***
                ***ONTARIO***

CITY           SKY/WX    TMP DP  RH WIND       PRES   REMARKS
GERALDTON      LGT SNOW  27  25  93 SE8       29.94  VSB 3/4 WCI  18
THUNDER BAY    CLOUDY    28  27  93 SE8       29.87F WCI  20
SIOUX LOOKOUT  LGT SNOW  28  27  93 SE3       29.78S VSB 1
TORONTO        PTCLDY    25   5  42 S5        30.28S WCI  19
BIG TROUT LK   PTCLDY    -6 -11  77 N3        30.15R
PICKLE LAKE    SNOW      16  12  86 E10G17    29.88F VSB 3/8 WCI   3
DRYDEN         LGT SNOW  27  27 100 S3        29.79S
KENORA         FRZ DRZL  27  27 100 CALM      29.80R FOG
$$
                *** MANITOBA***

CITY           SKY/WX    TMP DP  RH WIND       PRES   REMARKS
BRANDON        MOCLDY    21  16  79 N18       30.02R WCI   6
DAUPHIN        CLOUDY    14  10  85 N8        30.09R WCI   3
ISLAND LAKE    CLOUDY     0  -8  71 NE13      30.14F WCI -18
PILOT MOUND      N/A     21  19  93 NW12        N/A  WCI   9
THE PAS        LGT SNOW   1  -4  78 N8        30.19R WCI -12
THOMPSON       LGT SNOW  -8 -15  71 N5        30.25R WCI -19
WINNIPEG       CLOUDY    30  27  86 N15       29.91R WCI  19
LYNN LAKE      LGT SNOW  -9 -13  84 N3        30.22R
CHURCHILL      CRYSTALS -18 -26  69 W14       30.32S WCI -42
GILLAM         FLURRIES -11 -20  64 N6        30.27R WCI -25
$$
                ***SASKATCHEWAN***

CITY           SKY/WX    TMP DP  RH WIND       PRES   REMARKS
ESTEVAN        FLURRIES  28  27  93 NW24G31   30.10R WCI  14
KINDERSLEY     PTCLDY    27  21  80 NW12G21   30.27R WCI  16
LLOYDMINSTER   PTCLDY    12   5  73 NW17      30.27R WCI  -5
PRINCE ALBERT  FLURRIES  16  10  79 NW15      30.23R WCI   1
REGINA         CLOUDY    28  27  93 NW21      30.15R WCI  15
YORKTON        CLOUDY    18  14  86 W9        30.09R WCI   6



USA.gov is the U.S. government's official web portal to all federal, state and local government web resources and services.